Location: Newark
(49.2191°N, 12.6671°E)
Time: 16:50:42
(UTC+00:00)

Vanguard 1 - All Passes

Search period start: 21 January 2020 00:00
Search period end: 31 January 2020 00:00
Orbit: 651 x 3832 km, 34.2° (Epoch: 20 January)

Date Brightness Start Highest point End Pass type
(mag) Time Alt. Az. Time Alt. Az. Time Alt. Az.
21 Jan - 18:32:23 10° SW 18:36:21 21° S 18:41:45 10° SE visible
21 Jan - 20:50:53 10° SW 20:56:04 21° S 21:03:35 10° SE visible
21 Jan - 23:13:46 10° SW 23:16:49 11° SSW 23:20:21 10° S night (unlit)
22 Jan - 16:36:43 10° S 16:38:04 11° SSE 16:39:30 10° SE visible
22 Jan - 18:52:57 10° SW 18:57:00 21° S 19:02:33 10° SE visible
22 Jan - 21:12:07 10° SW 21:16:53 18° SSW 21:23:26 10° SSE visible
23 Jan - 16:56:15 10° SSW 16:58:35 14° SSE 17:01:13 10° SE visible
23 Jan - 19:13:41 10° SW 19:17:41 20° S 19:23:08 10° SE visible
23 Jan - 21:33:51 10° SW 21:37:43 14° SSW 21:42:36 10° S night (unlit)
24 Jan - 17:16:24 10° SSW 17:19:09 15° SSE 17:22:21 10° SE visible
24 Jan - 19:34:36 10° SW 19:38:25 18° S 19:43:28 10° SE visible
24 Jan - 21:57:46 10° SSW 21:58:34 10° SSW 21:59:24 10° SSW night (unlit)
25 Jan - 17:36:50 10° SSW 17:39:45 16° S 17:43:13 10° SE visible
25 Jan - 19:55:48 10° SW 19:59:10 15° S 20:03:25 10° SSE visible
26 Jan - 17:57:29 10° SW 18:00:24 16° S 18:03:51 10° SE visible
26 Jan - 20:17:38 10° SW 20:19:56 12° SSW 20:22:34 10° S visible
27 Jan - 16:00:19 10° SSW 16:02:00 12° SSE 16:03:42 10° SE daylight
27 Jan - 18:18:22 10° SW 18:21:03 15° S 18:24:13 10° SSE visible
28 Jan - 16:20:29 10° SSW 16:22:35 13° S 16:24:47 10° SE daylight
28 Jan - 18:39:36 10° SSW 18:41:44 12° S 18:44:09 10° SSE visible
29 Jan - 16:41:00 10° SSW 16:43:13 13° S 16:45:31 10° SSE visible
30 Jan - 14:43:28 10° S 14:44:47 11° S 14:46:03 10° SSE daylight
30 Jan - 17:01:50 10° SSW 17:03:50 13° S 17:05:57 10° SSE visible
